Welcome to the New NWS' Forecast!
Most changes are behind the scenes, but click here for differences you might notice.

Regional Weather Roundup (RWR)

Issued by Gray - Portland, ME (GYX)

                            
931 
ASUS41 KGYX 161205
RWRGYX
WEATHER ROUNDUP FOR MAINE AND NEW HAMPSHIRE
NATIONAL WEATHER SERVICE GRAY ME
800 AM EDT THU AUG 16 2018

MEZ002-005-006-010-012-015-018-020-021-024-026-027-029-161300-
MAINE
  
CITY           SKY/WX    TMP DP  RH WIND       PRES   REMARKS
PORTLAND       PTSUNNY   75  68  78 W3        29.96R                  
6HR MIN TEMP:  69; 6HR MAX TEMP:  75;                                

SANFORD        FAIR      75  67  76 W6        29.97R                  
BAR HARBOR     PTSUNNY   69  67  93 CALM      29.93R                  
WISCASSET      PTSUNNY   72  70  93 CALM      29.96R                  
6HR MIN TEMP:  66; 6HR MAX TEMP:  72;                                

ROCKLAND       CLOUDY    68  67  96 CALM      29.93R                  
FRYEBURG       FAIR      71  69  93 SE3       29.98R                  
6HR MIN TEMP:  67; 6HR MAX TEMP:  73;                                

LEWISTONAUBURN CLOUDY    71  67  87 CALM      29.97R                  
AUGUSTA        CLOUDY    71  64  78 W6        29.96R                  
6HR MIN TEMP:  67; 6HR MAX TEMP:  72;                                

WATERVILLE     FAIR      70  66  87 W5        29.93R                  
BANGOR         FAIR      70  67  90 W6        29.93R                  
6HR MIN TEMP:  65; 6HR MAX TEMP:  70; 6HR PCP:  0.02;                

GREENVILLE       N/A     63  58  83 NW9       29.96R                  
6HR MIN TEMP:  61; 6HR MAX TEMP:  66;                                

MILLINOCKET    FAIR      66  58  75 NW6       29.96R                  
6HR MIN TEMP:  62; 6HR MAX TEMP:  71;                                

HOULTON        PTSUNNY   61  58  90 CALM      29.92R                  
6HR MIN TEMP:  52; 6HR MAX TEMP:  62;                                

PRESQUE ISLE   FAIR      60  54  80 NW5       29.95R                  
6HR MIN TEMP:  52; 6HR MAX TEMP:  60;                                

FRENCHVILLE    FAIR      60  50  69 N8        29.94R                  
6HR MIN TEMP:  56; 6HR MAX TEMP:  60;                                

CARIBOU        FAIR      62  54  74 N8        29.93R                  
6HR MIN TEMP:  56; 6HR MAX TEMP:  62;                                

$$

NHZ002-005-008-009-011-012-014-161300-
NEW HAMPSHIRE
  
CITY           SKY/WX    TMP DP  RH WIND       PRES   REMARKS
PORTSMOUTH     MOSUNNY   74  68  80 W6        29.95R                  
ROCHESTER      FAIR      74  69  85 CALM      29.97R                  
6HR MIN TEMP:  68; 6HR MAX TEMP:  75;                                

MANCHESTER     NOT AVBL                                               
CONCORD        FAIR      71  69  93 CALM      29.98R                  
6HR MIN TEMP:  66; 6HR MAX TEMP:  73;                                

PLYMOUTH       CLOUDY    68  65  89 W3        29.99R                  
BERLIN         CLOUDY    68  66  93 CALM      30.00R                  
6HR MIN TEMP:  62; 6HR MAX TEMP:  68;                                

WHITEFIELD     CLOUDY    68  66  93 CALM      30.02R                  
6HR MIN TEMP:  66; 6HR MAX TEMP:  69; 6HR PCP:  0.03;                

JAFFREY        NOT AVBL                                               
LEBANON        CLOUDY    69  66  90 N3        30.00R FOG              
6HR MIN TEMP:  68; 6HR MAX TEMP:  70;                                

MT WASHINGTON  NOT AVBL                                               
$$

VTZ005-007-008-161300-
VERMONT
  
CITY           SKY/WX    TMP DP  RH WIND       PRES   REMARKS
ST JOHNSBURY     N/A     67  67 100 MISG      29.99R                  
MONTPELIER     PTSUNNY   66  64  93 NW6       30.06R                  
BURLINGTON     FAIR      71  64  78 N5        30.02R                  
$$

MAZ007-012-024-CTZ003-RIZ002-NYZ038-NYZ072-161300-
SOUTHERN NEW ENGLAND AND NY
  
CITY           SKY/WX    TMP DP  RH WIND       PRES   REMARKS
BOSTON         FAIR      80  69  69 W8        29.98R                  
WORCESTER      FAIR      73  68  84 W10       30.03R                  
NANTUCKET      FAIR      76  71  85 W7        29.99R                  
PROVIDENCE     FAIR      79  69  71 NW3       30.00R                  
HARTFORD       FAIR      76  68  76 NW3       30.01R                  
ALBANY         PTSUNNY   76  67  73 W5        30.03R                  
NEW YORK CITY  PTSUNNY   80  67  64 NW10      30.04R                  
$$

ANZ081-ANZ082-ANZ150-NHZ014-MEZ023>029-161300-
COASTAL MARINE OBSERVATIONS
  
STATION/POSITION TIME  TEMP    WIND        PRES    WAVE
                       AIR SEA DIR/SP/G            HT/PER
                 (UTC) (F)     (DEG/KT/KT) (MB)    (FT/S)
MOUNT DESERT ROC 1200   63     280/  9/ 11 1013.5R
MATINICUS ROCK   1100   64     310/  5/  5 1012.8R
ISLE OF SHOALS   1100   71     250/  9/  9 1013.7R
JEFFREYS LEDGE   1136      69                N/A     2/ 7
$$

.............KEY..............
   WCI - WIND CHILL
   TC  - TEMPERATURE IN CELSIUS
   VSB - VISIBILITY IN MILES
   HX  - HEAT INDEX
   FAIR- INDICATES FEW OR NO CLOUDS BELOW 12,000 FT, WITH NO 
         SIGNIFICANT WEATHER AND/OR OBSTRUCTIONS TO VISIBILITY.